Anchorage, AK

11:46 AM AKST on December 07, 2016 (GMT -0900)
Merrill

Weather History for PAMR - January, 2011

Change the Weather History Date:

Friday, January 14, 2011

  Actual Average Record
Temperature  
Mean Temperature 8 °F -  
Max Temperature 17 °F 21 °F 48 °F (2013)
Min Temperature -2 °F 8 °F -14 °F (2012)
Degree Days  
Heating Degree Days 58    
Moisture  
Dew Point -7 °F    
Average Humidity 63    
Maximum Humidity 76    
Minimum Humidity 33    
Precipitation  
Precipitation 0.00 in - - ()
Snow  
Snow 0.00 in - - ()
Snow Depth 3.00 in    
Sea Level Pressure  
Sea Level Pressure 30.07 in    
Wind  
Wind Speed 3 mph (ENE)    
Max Wind Speed 9 mph    
Max Gust Speed -    
Visibility 10 miles    
Events      
Averages and records for this station are not official NWS values.
T = Trace of Precipitation, MM = Missing Value Source: NWS Daily Summary

Daily Weather History Graph

Daily Weather History Graph

Search for Another Location

Airport or City:

Trip Planner

Search our weather history database for the weather conditions in past years. The results will help you decide how hot, cold, wet, or windy it might be!

Date:

Astronomy

Jan. 14, 2011 Rise Set
Actual Time 9:58 AM AKST 4:19 PM AKST
Civil Twilight 9:02 AM AKST 5:15 PM AKST
Nautical Twilight 8:05 AM AKST 6:12 PM AKST
Astronomical Twilight 7:13 AM AKST 7:04 PM AKST
Moon 11:33 AM AKST (1/14) 5:14 AM AKST (1/14)
Length of Visible Light 8h 13m
Length of Day
6h 20m
Waxing Gibbous, 73% of the Moon is Illuminated
Jan 14
Waxing Gibbous
Jan 19
Full
Jan 26
Last Quarter
Feb 2
New
Feb 10
First Quarter

Hourly Weather History & Observations

Time (AKST) Temp. Windchill Dew Point Humidity Pressure Visibility Wind Dir Wind Speed Gust Speed Precip Events Conditions
12:53 AM 6.1 °F -2.8 °F -4.0 °F 63% 30.18 in 10.0 mi North 4.6 mph - N/A   Clear
1:53 AM 1.9 °F -5.6 °F -6.0 °F 69% 30.15 in 10.0 mi SSE 3.5 mph - N/A   Clear
2:53 AM -0.0 °F -9.9 °F -6.0 °F 76% 30.13 in 10.0 mi SE 4.6 mph - N/A   Clear
3:53 AM -2.0 °F -12.2 °F -9.0 °F 72% 30.12 in 10.0 mi East 4.6 mph - N/A   Clear
4:53 AM -0.9 °F - -8.0 °F 72% 30.12 in 10.0 mi Calm Calm - N/A   Clear
5:53 AM -2.0 °F -12.2 °F -8.0 °F 76% 30.10 in 10.0 mi East 4.6 mph - N/A   Clear
6:53 AM -2.0 °F -10.1 °F -8.0 °F 76% 30.10 in 10.0 mi East 3.5 mph - N/A   Clear
7:53 AM -0.9 °F -8.9 °F -8.0 °F 72% 30.11 in 10.0 mi East 3.5 mph - N/A   Clear
8:53 AM 1.9 °F -5.6 °F -6.0 °F 69% 30.11 in 10.0 mi North 3.5 mph - N/A   Clear
9:53 AM -0.0 °F - -7.1 °F 72% 30.11 in 10.0 mi Calm Calm - N/A   Clear
10:53 AM -0.0 °F - -7.1 °F 72% 30.11 in 10.0 mi Calm Calm - N/A   Clear
11:53 AM 15.1 °F 3.3 °F -5.1 °F 41% 30.10 in 10.0 mi NNE 9.2 mph - N/A   Clear
12:53 PM 16.0 °F 8.8 °F -7.1 °F 36% 30.09 in 10.0 mi NNW 4.6 mph - N/A   Clear
1:53 PM 17.1 °F 6.6 °F -8.0 °F 33% 30.05 in 10.0 mi NNW 8.1 mph - N/A   Clear
2:53 PM 10.9 °F - -7.1 °F 44% 30.05 in 10.0 mi Calm Calm - N/A   Clear
3:53 PM 9.0 °F 2.4 °F -8.0 °F 46% 30.02 in 10.0 mi SSE 3.5 mph - N/A   Clear
4:53 PM 10.0 °F 3.6 °F -8.0 °F 44% 30.00 in 10.0 mi ENE 3.5 mph - N/A   Clear
5:53 PM 1.9 °F - -7.1 °F 66% 29.99 in 10.0 mi Calm Calm - N/A   Clear
6:53 PM 1.9 °F - -7.1 °F 66% 29.98 in 10.0 mi Calm Calm - N/A   Clear
7:53 PM 3.0 °F - -7.1 °F 63% 29.98 in 10.0 mi Calm Calm - N/A   Clear
8:53 PM -2.0 °F -10.1 °F -9.0 °F 72% 29.97 in 10.0 mi SE 3.5 mph - N/A   Clear
9:53 PM -0.0 °F - -7.1 °F 72% 29.99 in 10.0 mi Calm Calm - N/A   Clear
10:53 PM -0.0 °F - -9.0 °F 66% 30.00 in 10.0 mi Calm Calm - N/A   Clear
11:53 PM -2.0 °F - -8.0 °F 76% 30.01 in 10.0 mi Calm Calm - N/A   Partly Cloudy